Torna al catalogo

FENGYUN 1C DEB

AttivoSSO
NORAD 31972·DEBRIS·🇨🇳 China

Lanciato May 10, 1999 da Taiyuan Satellite Launch Center

Loading…

Prossimi Passaggi (prossime 24 ore)

TLE

AggiornatoSource: Space-Track

Epoca: Sep 12, 2026, 10:23 UTC

1 31972U 99025CNZ 26255.43277942  .00000217  00000-0  15217-3 0  9994
2 31972  99.1761 306.8585 0076240 350.7096  23.1116 14.07645985988111

Traccia FENGYUN 1C DEB in tempo reale con AllMySat

Download on the App Store